DW5164 Weather Reports


Display with metric or nautical units.
time (UTC)temp
F
wind
direction
speed
MPH
gust
MPH
rain 1hr
in
rain 24hr
in
rain mn
in
humidity
%
barometer
mb
20260504050025 55 212 2.0 3.0 0.00 0.00 0.00 75 1016.0
20260504045526 54 219 2.0 3.0 0.00 0.00 0.00 76 1016.0
20260504045025 54 211 1.0 3.0 0.00 0.00 0.00 78 1015.9
20260504044525 54 200 1.0 1.0 0.00 0.00 0.00 78 1015.9
20260504043525 53 190 1.0 2.0 0.00 0.00 0.00 79 1015.8
20260504043025 53 190 1.0 2.0 0.00 0.00 0.00 80 1015.8
20260504042525 53 190 2.0 3.0 0.00 0.00 0.00 81 1015.8
20260504042025 53 167 1.0 2.0 0.00 0.00 0.00 80 1015.8
20260504041525 53 163 0.0 1.0 0.00 0.00 0.00 80 1015.8
20260504041027 53 163 1.0 2.0 0.00 0.00 0.00 80 1015.7
20260504040525 53 163 1.0 2.0 0.00 0.00 0.00 80 1015.7
20260504040027 53 163 0.0 0.0 0.00 0.00 0.00 79 1015.6
20260504035025 53 163 0.0 0.0 0.00 0.00 0.00 78 1015.6
20260504034525 53 163 0.0 0.0 0.00 0.00 0.00 79 1015.6
20260504034025 53 163 0.0 0.0 0.00 0.00 0.00 79 1015.6
20260504033527 54 163 0.0 0.0 0.00 0.00 0.00 77 1015.6
20260504033025 54 163 0.0 1.0 0.00 0.00 0.00 76 1015.5
20260504032525 55 170 0.0 0.0 0.00 0.00 0.00 76 1015.5
20260504032025 55 170 0.0 0.0 0.00 0.00 0.00 77 1015.5
20260504031525 55 170 0.0 0.0 0.00 0.00 0.00 76 1015.5
20260504031025 54 170 0.0 0.0 0.00 0.00 0.00 75 1015.5
20260504030525 55 170 0.0 0.0 0.00 0.00 0.00 76 1015.5
20260504030025 55 169 0.0 0.0 0.00 0.00 0.00 75 1015.5
20260504025525 55 170 0.0 1.0 0.00 0.00 0.00 75 1015.5
20260504024524 55 169 1.0 2.0 0.00 0.00 0.00 73 1015.6
20260504023541 56 169 0.0 1.0 0.00 0.00 0.00 70 1015.6
20260504023025 57 268 0.0 0.0 0.00 0.00 0.00 69 1015.6
20260504022525 57 268 0.0 0.0 0.00 0.00 0.00 68 1015.6
20260504022026 57 268 1.0 2.0 0.00 0.00 0.00 68 1015.5
20260504021524 58 268 1.0 2.0 0.00 0.00 0.00 67 1015.6
20260504021025 58 268 1.0 2.0 0.00 0.00 0.00 66 1015.6
20260504020525 58 268 1.0 2.0 0.00 0.00 0.00 65 1015.5
20260504015527 59 278 3.0 5.0 0.00 0.00 0.00 63 1015.5
20260504015027 59 280 2.0 3.0 0.00 0.00 0.00 63 1015.5
20260504014524 59 293 2.0 3.0 0.00 0.00 0.00 64 1015.5
20260504014027 59 290 2.0 3.0 0.00 0.00 0.00 64 1015.5
20260504013026 59 284 2.0 5.0 0.00 0.00 0.00 64 1015.6
20260504012525 59 288 2.0 3.0 0.00 0.00 0.00 65 1015.6
20260504012026 59 310 1.0 2.0 0.00 0.00 0.00 65 1015.6
20260504011525 59 288 3.0 3.0 0.00 0.00 0.00 65 1015.7
20260504011027 59 263 3.0 3.0 0.00 0.00 0.00 65 1015.7
20260504010528 59 272 3.0 3.0 0.00 0.00 0.00 65 1015.7
20260504010025 59 267 2.0 3.0 0.00 0.00 0.00 66 1015.7
20260504005525 59 259 3.0 3.0 0.00 0.00 0.00 66 1015.8
20260504005024 60 261 2.0 3.0 0.00 0.00 0.00 66 1015.8
20260504004025 60 273 2.0 3.0 0.00 0.00 0.00 65 1015.8
20260504003524 60 272 2.0 3.0 0.00 0.00 0.00 64 1015.9
20260504002524 61 254 1.0 2.0 0.00 0.00 0.00 65 1016.0
20260504001525 61 239 1.0 2.0 0.00 0.00 0.00 66 1016.1
20260504001025 60 239 1.0 2.0 0.00 0.00 0.00 67 1016.1
20260504000524 60 248 1.0 3.0 0.00 0.00 0.00 70 1016.1
20260504000025 60 240 2.0 3.0 0.00 0.00 0.00 70 1016.1
20260503235524 60 256 0.0 2.0 0.00 0.00 0.00 70 1016.1
20260503235027 60 265 0.0 0.0 0.00 0.00 0.00 69 1016.2
20260503234524 61 265 0.0 0.0 0.00 0.00 0.00 67 1016.2
20260503234024 61 265 0.0 1.0 0.00 0.00 0.00 65 1016.2
20260503233524 61 265 2.0 3.0 0.00 0.00 0.00 66 1016.2
20260503232025 62 288 0.0 0.0 0.00 0.00 0.00 64 1016.1
20260503231524 63 288 0.0 1.0 0.00 0.00 0.00 62 1016.2
20260503231024 63 291 2.0 3.0 0.00 0.00 0.00 62 1016.2
20260503230525 63 301 1.0 3.0 0.00 0.00 0.00 63 1016.2
20260503230024 63 327 1.0 2.0 0.00 0.00 0.00 62 1016.2
20260503225524 63 329 1.0 3.0 0.00 0.00 0.00 62 1016.3
20260503224524 63 31 2.0 3.0 0.00 0.00 0.00 63 1016.3
20260503224024 63 23 1.0 2.0 0.00 0.00 0.00 62 1016.3
20260503223024 63 275 3.0 3.0 0.00 0.00 0.00 62 1016.1
20260503222524 63 265 3.0 3.0 0.00 0.00 0.00 62 1016.1
20260503222026 63 267 3.0 3.0 0.00 0.00 0.00 63 1016.1
20260503221039 63 256 2.0 3.0 0.00 0.00 0.00 63 1016.0
20260503220540 63 241 2.0 3.0 0.00 0.00 0.00 63 1016.0
20260503220025 63 255 2.0 3.0 0.00 0.00 0.00 63 1016.0
20260503215025 63 250 3.0 3.0 0.00 0.00 0.00 63 1016.0
20260503214528 63 240 2.0 3.0 0.00 0.00 0.00 64 1015.9
20260503214024 62 245 3.0 3.0 0.00 0.00 0.00 64 1015.9
20260503213524 62 247 2.0 3.0 0.00 0.00 0.00 65 1015.8
20260503213024 63 229 1.0 3.0 0.00 0.00 0.00 65 1015.8
20260503212525 63 229 0.0 0.0 0.00 0.00 0.00 65 1015.7
20260503212023 63 229 0.0 0.0 0.00 0.00 0.00 64 1015.7
20260503211525 63 229 1.0 2.0 0.00 0.00 0.00 65 1015.6
20260503210524 62 245 0.0 0.0 0.00 0.00 0.00 66 1015.6
20260503210027 63 283 0.0 0.0 0.00 0.00 0.00 67 1015.5
20260503205524 63 310 0.0 0.0 0.00 0.00 0.00 66 1015.5
20260503205023 63 310 0.0 0.0 0.00 0.00 0.00 65 1015.4
20260503204523 63 310 0.0 0.0 0.00 0.00 0.00 65 1015.5
20260503204023 64 310 0.0 0.0 0.00 0.00 0.00 65 1015.5
20260503203523 64 310 0.0 0.0 0.00 0.00 0.00 65 1015.5
20260503203024 64 310 0.0 0.0 0.00 0.00 0.00 65 1015.5
20260503202524 64 310 0.0 0.0 0.00 0.00 0.00 64 1015.6
20260503202024 65 310 0.0 0.0 0.00 0.00 0.00 62 1015.6
20260503201523 65 310 0.0 0.0 0.00 0.00 0.00 61 1015.6
20260503201023 65 310 0.0 0.0 0.00 0.00 0.00 61 1015.6
20260503200529 65 310 0.0 0.0 0.00 0.00 0.00 61 1015.6
20260503200023 65 310 0.0 0.0 0.00 0.00 0.00 60 1015.6
20260503194023 66 310 0.0 0.0 0.00 0.00 0.00 59 1015.4
20260503193524 66 310 0.0 0.0 0.00 0.00 0.00 58 1015.3
20260503192523 67 310 0.0 0.0 0.00 0.00 0.00 57 1015.3
20260503191524 67 310 1.0 1.0 0.00 0.00 0.00 57 1015.2
20260503191024 68 310 0.0 0.0 0.00 0.00 0.00 57 1015.2
20260503190023 68 310 0.0 1.0 0.00 0.00 0.00 57 1015.1
20260503185024 69 310 0.0 0.0 0.00 0.00 0.00 54 1015.1
20260503184039 70 310 0.0 0.0 0.00 0.00 0.00 53 1015.0
20260503183523 70 310 0.0 1.0 0.00 0.00 0.00 52 1015.0
20260503183023 71 310 1.0 1.0 0.00 0.00 0.00 52 1015.0
20260503182523 71 310 1.0 1.0 0.00 0.00 0.00 51 1014.9
20260503181524 72 310 0.0 0.0 0.00 0.00 0.00 48 1014.9
20260503181023 73 310 0.0 1.0 0.00 0.00 0.00 48 1014.8
20260503180525 74 310 0.0 1.0 0.00 0.00 0.00 45 1014.8
20260503180024 75 310 1.0 2.0 0.00 0.00 0.00 42 1014.7
20260503175524 75 310 2.0 2.0 0.00 0.00 0.00 41 1014.7
20260503175023 75 311 0.0 2.0 0.00 0.00 0.00 41 1014.6
20260503174024 76 290 2.0 3.0 0.00 0.00 0.00 40 1014.7
20260503173024 77 298 2.0 5.0 0.00 0.00 0.00 39 1014.7
20260503172523 77 298 3.0 3.0 0.00 0.00 0.00 39 1014.6
20260503172023 76 263 1.0 3.0 0.00 0.00 0.00 41 1014.7
20260503171525 76 243 0.0 1.0 0.00 0.00 0.00 46 1014.7
20260503171023 76 243 0.0 0.0 0.00 0.00 0.00 44 1014.7
20260503170523 76 243 0.0 1.0 0.00 0.00 0.00 44 1014.7
20260503150523 81 353 3.0 7.0 0.00 0.00 0.00 35 1015.6
20260503131023 80 255 4.0 5.0 0.00 0.00 0.00 37 1016.7
20260503130522 79 224 5.0 7.0 0.00 0.00 0.00 38 1016.7
20260503110522 76 199 3.0 6.0 0.00 0.00 0.00 40 1017.4
20260503081521 67 87 0.0 2.0 0.00 0.00 0.00 60 1018.6
20260503081022 67 65 2.0 3.0 0.00 0.00 0.00 65 1018.6
20260503080521 66 66 2.0 3.0 0.00 0.00 0.00 62 1018.6